EW0362 Weather Reports


time (UTC)temp
F
wind
direction
speed
knots
gust
knots
rain 1hr
in
rain 24hr
in
rain mn
in
humidity
%
barometer
mb
20240416040204 45 338 0.0 0.0 0.00 0.00 0.00 86 1014.6
20240416035204 45 338 0.0 0.0 0.00 0.00 0.00 86 1014.5
20240416034705 46 338 0.0 0.0 0.00 0.00 0.00 85 1014.5
20240416033204 46 338 0.0 0.0 0.00 0.01 0.00 84 1014.6
20240416032704 47 338 0.0 0.0 0.00 0.01 0.00 84 1014.5
20240416031705 47 338 0.0 0.0 0.00 0.01 0.00 83 1014.4
20240416031205 47 338 0.0 0.0 0.00 0.01 0.00 83 1014.4
20240416030205 48 338 0.0 0.0 0.00 0.01 0.00 83 1014.3
20240416025704 48 338 0.0 0.0 0.00 0.01 0.00 83 1014.3
20240416024204 49 338 0.0 0.0 0.00 0.01 0.00 81 1014.0
20240416023204 50 338 0.0 0.0 0.00 0.01 0.00 81 1013.8
20240416022204 50 338 0.0 0.0 0.00 0.01 0.00 78 1013.6
20240416020704 51 338 0.0 0.0 0.00 0.01 0.00 76 1013.6
20240416020205 51 338 0.0 0.0 0.00 0.01 0.00 76 1013.6
20240416015704 51 338 0.0 0.0 0.00 0.01 0.00 76 1013.6
20240416014704 52 338 0.0 1.7 0.00 0.02 0.00 76 1013.8
20240416014204 52 338 0.9 1.7 0.00 0.02 0.00 76 1013.8
20240416013704 52 337 0.9 1.7 0.00 0.02 0.00 74 1013.9
20240416012205 53 337 0.0 0.9 0.00 0.03 0.00 71 1013.8
20240416011204 53 337 0.0 1.7 0.00 0.03 0.00 71 1013.6
20240416010705 53 346 0.0 0.9 0.00 0.03 0.00 71 1013.5
20240416005705 54 343 0.0 0.9 0.00 0.03 0.00 70 1013.3
20240416005204 54 343 0.9 1.7 0.00 0.03 0.00 71 1013.2
20240416004704 54 344 0.0 1.7 0.00 0.03 0.00 70 1013.2
20240415230705 59 320 1.7 4.3 0.00 0.03 0.00 61 1011.3
20240415224204 61 357 1.7 5.2 0.00 0.04 0.00 57 1011.0
20240415222704 61 271 1.7 6.1 0.00 0.04 0.00 57 1010.6
20240415222206 61 314 1.7 5.2 0.00 0.04 0.00 57 1010.6
20240415221704 61 350 2.6 10.4 0.00 0.05 0.00 57 1010.5
20240415220205 61 0 0.9 2.6 0.00 0.05 0.00 58 1010.3
20240415215204 62 0 1.7 5.2 0.00 0.05 0.00 57 1010.1
20240415214703 62 0 0.9 4.3 0.00 0.05 0.00 58 1010.1
20240415214204 62 0 1.7 7.0 0.00 0.05 0.00 57 1010.0
20240415213704 63 0 3.5 7.8 0.00 0.05 0.00 56 1010.0
20240415212705 65 0 3.5 7.8 0.00 0.05 0.00 53 1009.8
20240415211204 66 0 2.6 7.8 0.00 0.05 0.00 41 1009.3
20240415205705 66 0 4.3 7.8 0.00 0.05 0.00 39 1009.0
20240415205204 66 0 2.6 5.2 0.00 0.05 0.00 41 1009.0
20240415202704 67 198 2.6 8.7 0.00 0.05 0.00 40 1008.5
20240415202204 67 307 2.6 8.7 0.00 0.05 0.00 40 1008.5
20240415201705 67 0 4.3 7.0 0.00 0.05 0.00 39 1008.4
20240415201204 67 0 1.7 7.8 0.00 0.05 0.00 37 1008.4
20240415195705 68 0 4.3 10.4 0.00 0.05 0.00 37 1008.0
20240415194703 69 326 3.5 8.7 0.00 0.05 0.00 39 1007.7
20240415194204 69 317 2.6 7.8 0.00 0.05 0.00 40 1007.8
20240415193703 69 0 1.7 7.0 0.00 0.05 0.00 39 1007.5
20240415191704 69 0 3.5 6.1 0.00 0.05 0.00 39 1007.1
20240415191204 70 0 2.6 10.4 0.00 0.05 0.00 39 1007.1
20240415190704 70 0 2.6 7.0 0.00 0.05 0.00 39 1007.1
20240415185704 70 0 2.6 6.1 0.00 0.05 0.00 40 1007.1
20240415185204 70 0 2.6 7.8 0.00 0.05 0.00 42 1007.1
20240415184704 71 0 2.6 7.8 0.00 0.05 0.00 42 1007.0
20240415184206 70 0 2.6 7.8 0.00 0.05 0.00 42 1007.2
20240415183204 70 0 1.7 7.0 0.00 0.05 0.00 44 1007.2
20240415182204 70 0 0.9 4.3 0.00 0.05 0.00 46 1007.2
20240415181204 70 0 2.6 8.7 0.00 0.05 0.00 45 1007.2
20240415180204 70 0 2.6 7.0 0.00 0.05 0.00 45 1007.2
20240415175704 69 0 1.7 5.2 0.00 0.05 0.00 46 1007.2
20240415174204 69 0 2.6 6.1 0.00 0.05 0.00 46 1007.3
20240415173704 69 0 3.5 10.4 0.00 0.05 0.00 48 1007.4
20240415171704 68 0 3.5 7.0 0.00 0.05 0.00 49 1007.6
20240415170204 68 266 3.5 10.4 0.00 0.05 0.00 52 1007.6
20240415165204 68 274 4.3 7.0 0.00 0.05 0.00 52 1007.5
20240415164204 67 333 2.6 6.1 0.00 0.05 0.00 51 1007.3
20240415162204 66 299 2.6 6.1 0.00 0.05 0.00 56 1007.4
20240415161703 66 297 2.6 7.0 0.00 0.05 0.00 57 1007.6
20240415154704 64 231 1.7 2.6 0.00 0.05 0.00 64 1007.7
20240415154204 64 221 2.6 6.1 0.00 0.05 0.00 64 1007.7
20240415153204 62 200 1.7 5.2 0.00 0.05 0.00 70 1007.8
20240415152703 62 229 1.7 4.3 0.00 0.05 0.00 70 1007.9
20240415151204 61 214 1.7 2.6 0.00 0.05 0.00 75 1008.2
20240415150204 60 299 1.7 4.3 0.00 0.05 0.00 74 1008.5
20240415145204 59 28 0.0 2.6 0.00 0.05 0.00 77 1008.5
20240415142204 56 277 0.9 2.6 0.00 0.05 0.00 84 1008.5
20240415141704 55 262 0.9 2.6 0.00 0.05 0.00 85 1008.5
20240415134203 51 242 0.9 2.6 0.00 0.05 0.00 98 1008.4
20240415133704 51 246 0.0 1.7 0.00 0.05 0.00 99 1008.3
20240415131704 49 228 0.0 0.0 0.00 0.05 0.00 99 1008.5
20240415131204 49 228 0.0 0.0 0.00 0.05 0.00 98 1008.4
20240415125704 48 229 0.0 0.9 0.00 0.05 0.00 99 1008.4
20240415124204 47 230 0.0 0.9 0.00 0.05 0.00 98 1008.5
20240415123203 46 229 0.0 0.0 0.00 0.05 0.00 98 1008.5
20240415122704 46 229 0.0 0.0 0.00 0.05 0.00 98 1008.5
20240415122203 45 229 0.0 0.9 0.00 0.05 0.00 98 1008.5
20240415121204 45 229 0.0 0.0 0.00 0.05 0.00 98 1008.4
20240415120704 44 229 0.0 0.0 0.00 0.05 0.00 98 1008.3
20240415120204 43 229 0.0 0.0 0.00 0.05 0.00 98 1008.4
20240415115204 42 229 0.0 0.0 0.00 0.05 0.00 98 1008.1
20240415112704 41 229 0.0 0.0 0.00 0.05 0.00 98 1007.8
20240415112204 41 229 0.0 0.9 0.00 0.05 0.00 97 1007.7
20240415110204 40 229 0.0 0.0 0.00 0.05 0.00 97 1007.8
20240415105204 40 229 0.0 0.0 0.00 0.05 0.00 96 1007.7
20240415103704 40 229 0.0 0.0 0.00 0.05 0.00 96 1007.5
20240415102704 40 229 0.0 0.0 0.00 0.05 0.00 96 1007.1
20240415102204 40 229 0.0 0.0 0.00 0.05 0.00 96 1007.0
20240415101205 40 229 0.0 0.0 0.00 0.05 0.00 96 1006.8
20240415100703 40 229 0.0 0.0 0.00 0.05 0.00 96 1006.8
20240415095703 40 229 0.0 0.0 0.00 0.05 0.00 96 1006.8
20240415095204 40 229 0.0 0.0 0.00 0.05 0.00 96 1006.7
20240415094703 40 229 0.0 0.0 0.00 0.05 0.00 96 1006.7
20240415093704 40 229 0.0 0.0 0.00 0.05 0.00 96 1006.8
20240415091204 41 229 0.0 0.0 0.00 0.05 0.00 96 1006.5
20240415090204 41 229 0.0 0.0 0.00 0.05 0.00 96 1006.5
20240415084704 41 229 0.0 0.0 0.00 0.05 0.00 96 1006.3
20240415084204 41 229 0.0 0.0 0.00 0.05 0.00 96 1006.2
20240415083703 41 229 0.0 0.0 0.00 0.05 0.00 96 1006.0
20240415083204 41 229 0.0 0.0 0.00 0.05 0.00 95 1006.0
20240415082704 42 229 0.0 0.0 0.00 0.05 0.00 95 1005.9
20240415082204 42 229 0.0 0.0 0.00 0.05 0.00 95 1005.8
20240415081704 42 229 0.0 0.0 0.00 0.05 0.00 95 1005.8
20240415075704 42 229 0.0 0.0 0.00 0.05 0.00 95 1005.7
20240415071703 44 229 0.0 0.0 0.00 0.05 0.00 95 1005.3
20240415071204 44 229 0.0 0.0 0.00 0.05 0.00 95 1005.2
20240415070703 44 229 0.0 0.0 0.00 0.05 0.00 95 1005.1
20240415070203 44 229 0.0 0.0 0.00 0.05 0.00 96 1005.0
20240415065704 44 229 0.0 0.0 0.00 0.05 0.00 95 1005.0
20240415063704 45 229 0.0 0.0 0.00 0.05 0.00 95 1005.0
20240415063203 45 229 0.0 0.0 0.00 0.05 0.00 95 1005.0
20240415062704 45 229 0.0 0.0 0.00 0.05 0.00 95 1005.0
20240415060704 46 229 0.0 0.0 0.00 0.05 0.00 95 1005.0
20240415055703 46 229 0.0 0.0 0.00 0.05 0.00 95 1005.1
20240415054203 46 229 0.0 0.0 0.00 0.05 0.00 96 1005.3
20240415053703 46 229 0.0 0.0 0.00 0.05 0.00 95 1005.3
20240415052703 46 229 0.0 0.0 0.00 0.05 0.00 95 1005.4
20240415052203 47 229 0.0 0.0 0.00 0.05 0.00 96 1005.3
20240415051703 47 229 0.0 0.0 0.00 0.05 0.00 96 1005.4
20240415051203 47 229 0.0 0.0 0.00 0.05 0.00 96 1005.4
20240415050703 47 229 0.0 0.0 0.00 0.05 0.00 95 1005.4
20240415045704 47 229 0.0 0.0 0.00 0.05 0.00 95 1005.4
20240415045203 47 229 0.0 0.0 0.00 0.05 0.00 95 1005.3
20240415043704 48 229 0.0 0.0 0.00 0.05 0.00 95 1005.4
20240415043203 48 229 0.0 0.0 0.00 0.05 0.00 95 1005.4
20240415042703 48 229 0.0 0.0 0.00 0.05 0.00 95 1005.3
20240415041703 48 229 0.0 0.0 0.00 0.05 0.00 95 1005.4
20240415041204 48 229 0.0 0.0 0.00 0.05 0.00 96 1005.5
20240415040703 48 229 0.0 0.0 0.00 0.05 0.00 96 1005.5